Tracking 28794 objects as of 19-Apr-2024
HD Live streaming from Space Station
objects crossing your sky now

WESTAR 3

Track WESTAR 3 now!
WESTAR 3 is classified as:


NORAD ID: 11484
Int'l Code: 1979-072A
Perigee: 35,883.8 km
Apogee: 35,888.4 km
Inclination: 11.5 °
Period: 1,440.8 minutes
Semi major axis: 42257 km
RCS: 3.6567 m2 (large)
Launch date: August 10, 1979
Source: United States (US)
Launch site: AIR FORCE EASTERN TEST RANGE (AFETR)
Your satellite tracking list
Your tracking list is empty




NASA's NSSDC Master Catalog

Two Line Element Set (TLE):
1 11484U 79072A   24110.25798459  .00000122  00000-0  00000-0 0  9995
2 11484  11.5278 326.5262 0000547  83.1912 290.9848  0.99943149132633
Source of the keplerian elements: AFSPC